SCP
1 1 1 1 1 1 1 1 1 1 1 1 1 0 0 0 0 0 0 0 0 1 1 1 1 2 2 2 1 1 1 1 1 1 1 1 1 1 1 1 1 1 1
1 1 1 1 1 1 1 1 1 1 1 1 0 0 0 0 0 0 0 0 1 1 1 1 2 2 2 2 2 1 1 1 1 1 1 1 1 1 1 1 1 0 0
1 1 1 1 1 1 1 1 1 1 1 0 0 0 0 0 1 1 1 1 1 1 1 2 2 3 3 3 3 2 2 1 1 1 1 1 1 1 1 1 1 1 0
1 1 1 1 1 1 1 1 1 1 0 1 1 1 1 1 1 1 1 1 1 2 2 2 3 3 4 4 4 3 3 2 2 1 1 1 1 1 1 1 1 1 0
1 1 1 1 1 1 1 1 0 1 1 1 1 1 1 1 1 1 1 1 2 2 3 3 3 3 3 3 3 3 3 3 2 1 1 1 1 1 1 1 1 1 1
1 1 1 1 1 1 1 0 0 1 1 1 2 2 2 1 1 0 1 1 2 3 3 3 3 2 2 1 1 1 1 2 2 1 1 1 1 1 1 1 1 1 1
1 1 1 1 1 1 1 1 1 1 1 2 2 2 2 2 1 0 0 1 2 2 3 3 2 2 1 1 1 0 0 1 1 1 1 1 1 1 1 1 1 1 1
1 1 1 2 2 2 2 1 1 1 2 2 2 2 2 2 1 0 0 1 1 2 2 2 1 1 1 1 1 1 1 0 0 0 1 1 1 1 1 1 1 1 1
1 1 1 2 2 2 2 2 1 1 1 2 2 2 2 2 1 0 0 1 1 2 2 1 1 1 0 0 0 1 1 0 0 0 0 0 0 0 1 1 1 1 1
2 2 2 2 2 2 2 2 1 1 1 1 1 1 1 1 1 0 0 1 1 1 1 1 1 0 0 0 0 0 0 0 1 1 0 0 0 0 0 0 1 1 0
2 2 2 2 2 2 2 2 1 1 1 1 1 1 1 1 1 0 0 0 1 1 1 1 1 0 0 0 0 0 0 0 1 1 1 1 1 1 1 1 1 1 1
2 2 2 2 2 2 2 2 2 1 1 1 1 1 1 1 0 0 0 0 0 0 1 1 1 0 0 0 0 0 0 0 0 1 1 1 1 1 1 1 1 1 1
4 3 3 2 2 2 2 3 2 2 1 1 0 0 1 1 0 0 0 0 0 0 0 0 0 0 0 0 0 0 0 0 0 1 1 1 1 1 1 1 1 1 1
5 4 3 2 2 2 2 3 3 2 1 1 0 0 0 0 0 0 0 0 0 0 0 0 0 0 0 0 0 0 0 0 1 1 1 1 1 1 2 2 1 1 1
4 3 2 1 2 2 2 3 3 2 1 0 0 0 0 0 0 0 0 0 0 0 0 0 0 0 0 0 0 1 1 1 1 1 1 1 1 1 1 1 1 1 1
2 2 1 1 2 2 2 2 2 1 0 0 0 0 0 0 0 0 0 0 0 0 0 0 1 1 1 1 1 1 1 1 1 1 1 1 1 1 1 1 1 1 1
1 1 1 1 1 2 2 2 2 1 0 0 0 0 0 0 0 0 0 0 0 0 0 0 1 1 1 1 1 1 1 1 1 1 1 1 1 1 1 0 0 1 0
1 1 1 1 1 1 2 2 2 1 1 0 0 0 0 0 0 0 0 0 0 0 0 0 1 1 2 2 1 1 1 1 1 1 1 1 1 0 0 0 1 1 0
1 1 1 1 1 1 1 2 2 1 1 1 1 0 0 0 0 0 0 0 0 0 0 1 1 1 1 1 1 1 1 1 1 1 1 1 1 1 1 1 1 0 0
1 1 1 1 1 1 1 1 1 1 1 1 1 1 0 0 0 0 0 0 0 0 1 1 1 1 1 1 1 1 1 1 1 1 1 1 1 1 1 1 0 0 0
1 1 1 1 1 1 1 1 1 1 1 1 1 1 0 0 1 1 1 1 0 1 1 1 1 1 1 1 1 1 1 1 1 1 1 1 1 1 1 1 1 0 0
1 1 1 1 1 1 1 1 1 1 1 0 0 0 0 0 0 1 1 0 0 0 1 1 1 1 1 1 1 1 1 1 1 1 1 1 1 1 1 1 0 0 0
0 0 0 0 0 0 1 1 1 1 0 0 0 0 0 0 1 1 0 0 0 0 0 1 1 1 1 1 1 1 1 1 1 1 1 1 1 1 1 0 0 0 0
0 0 0 0 0 0 0 0 0 0 0 0 0 0 0 0 1 1 1 0 0 0 0 1 0 0 0 0 0 0 1 0 0 0 0 1 1 0 0 0 0 0 0
0 0 0 0 0 0 0 0 0 0 0 0 0 0 0 0 0 1 1 1 1 0 0 0 0 0 0 0 0 0 0 0 0 0 0 0 0 0 0 0 0 0 0
0 0 0 0 0 0 0 0 1 1 1 1 0 0 0 0 0 0 0 0 0 0 0 0 0 0 0 0 0 0 0 0 0 0 0 0 0 0 0 0 0 0 0
Wind_Speed
10 9 8 7 7 6 5 5 5 4 4 3 3 3 3 3 3 3 4 3 4 4 4 4 5 5 5 6 5 6 6 7 8 8 7 6 6 8 8 7 8 8 8
11 10 9 8 8 7 7 6 5 5 5 4 4 3 3 3 3 4 5 4 5 5 5 5 6 5 5 7 6 7 6 6 9 10 8 8 8 8 8 8 9 8 8
11 11 10 9 8 8 7 6 6 6 5 5 4 4 4 4 4 4 4 5 5 5 5 6 6 6 7 6 7 7 7 7 7 9 10 7 8 7 8 9 10 7 9
12 11 11 10 9 8 7 7 7 6 6 6 5 5 5 5 5 5 5 5 6 6 6 7 7 7 7 7 7 8 8 8 8 9 9 8 8 7 7 8 8 7 7
12 11 11 10 9 8 8 7 7 7 7 6 6 6 5 5 5 4 5 6 6 7 7 8 8 6 6 7 8 8 8 8 9 9 9 8 8 7 7 7 8 8 8
13 12 11 10 10 9 9 8 8 7 7 6 6 6 6 5 3 2 6 8 7 8 8 8 8 8 9 12 12 12 11 11 11 10 10 9 9 9 8 8 9 9 9
13 12 11 11 11 10 10 9 8 8 7 7 7 7 7 5 5 6 7 9 9 8 8 8 8 6 6 9 9 14 15 17 16 13 14 13 12 10 10 11 10 10 10
13 12 12 11 11 10 10 9 8 7 7 7 7 7 7 6 7 8 7 10 10 9 9 9 9 9 8 7 10 11 11 11 12 13 13 13 13 11 10 11 12 12 12
13 13 12 12 11 11 10 9 8 7 7 7 7 7 8 7 7 8 8 9 8 10 9 9 10 10 5 5 10 12 12 12 11 14 14 14 13 12 11 10 11 11 11
14 13 12 11 11 11 10 8 7 7 7 7 7 7 8 8 6 8 8 8 9 8 8 9 10 11 7 6 10 12 13 12 12 10 11 14 15 15 16 14 12 12 11
12 12 11 11 11 10 9 8 7 7 7 7 7 7 8 8 7 8 9 8 9 9 8 8 6 9 10 10 11 12 13 12 13 13 12 12 11 10 11 12 12 11 12
12 12 11 11 10 9 9 8 8 7 8 8 8 8 7 7 7 7 10 11 10 10 10 9 6 4 8 10 11 12 12 10 11 12 11 11 10 9 9 9 10 12 12
11 11 10 10 9 8 9 9 8 8 7 7 6 6 6 6 6 11 12 13 13 10 10 9 10 8 9 11 14 15 12 10 10 11 11 10 9 9 9 8 10 11 13
11 10 10 9 9 9 7 8 7 7 7 7 6 7 7 6 6 5 6 8 11 12 10 10 12 15 13 13 11 10 10 9 9 10 10 10 9 8 8 8 8 9 9
10 9 9 9 8 7 8 6 7 6 5 6 7 6 7 7 4 4 6 7 7 7 8 9 10 9 9 8 8 8 8 8 8 9 9 9 9 9 9 8 8 9 10
9 8 7 7 6 6 6 7 7 8 5 7 8 9 8 7 7 7 7 9 9 7 7 11 11 10 10 9 9 8 8 8 8 7 8 8 9 9 9 8 8 9 10
7 6 5 5 5 5 5 5 5 7 11 12 12 12 13 11 11 11 10 10 10 8 9 11 11 10 10 10 9 9 9 8 7 8 8 8 8 8 8 8 8 9 9
6 5 4 3 4 4 4 5 5 6 5 6 9 14 14 14 13 13 10 8 9 9 10 10 10 10 9 9 9 9 9 8 7 8 9 9 8 8 8 9 9 10 9
5 4 3 3 4 4 4 5 5 6 6 6 6 5 10 11 13 13 9 9 10 10 9 9 9 9 9 9 9 9 9 9 8 8 9 9 8 8 9 9 9 9 10
4 3 2 3 3 4 4 4 5 5 6 6 6 7 4 5 7 7 7 8 9 9 9 9 9 9 9 9 8 8 9 9 8 8 8 7 7 8 9 10 9 9 8
3 4 5 4 3 3 3 4 5 6 6 6 6 5 3 8 9 9 9 8 8 9 9 9 9 10 9 8 8 8 10 8 8 8 7 7 7 7 7 8 8 9 9
1 1 1 1 2 2 3 5 6 6 7 8 7 5 5 7 8 8 8 8 8 8 8 8 8 8 8 8 8 8 9 9 7 7 7 7 7 7 8 8 8 8 9
1 1 1 2 2 2 4 5 5 6 6 7 7 7 7 7 7 8 8 8 8 8 8 8 8 8 8 7 7 8 8 7 6 6 7 7 7 8 8 8 10 10 10
1 1 2 2 3 4 4 5 6 6 7 7 7 7 7 7 8 9 9 8 8 8 8 7 8 10 11 8 7 7 5 5 6 6 9 8 8 8 8 8 9 10 10
1 2 3 4 4 5 5 6 6 7 7 7 7 7 8 8 9 8 8 8 9 9 10 9 7 8 10 10 8 6 3 3 4 6 8 8 10 10 9 10 9 9 9
3 4 4 4 5 5 6 6 7 7 7 7 7 8 8 8 8 8 8 8 8 8 8 7 8 9 10 8 7 6 3 3 4 5 6 8 10 9 9 8 10 9 10
Wind_Direction
176 177 173 177 175 180 184 182 184 191 192 204 210 222 238 247 249 254 272 270 269 279 279 277 278 291 289 291 281 276 274 277 282 286 287 286 278 278 288 287 279 272 258
178 178 181 182 184 190 188 189 193 197 203 205 214 227 239 242 248 256 264 269 271 275 278 280 277 272 272 276 284 281 280 282 279 288 291 285 277 273 271 275 276 271 273
179 183 184 187 190 196 192 192 199 202 207 209 218 231 239 244 246 250 260 267 270 272 275 276 277 277 273 276 275 278 279 273 273 279 282 285 279 273 275 270 269 267 270
183 188 187 191 192 195 196 195 200 206 212 215 223 231 239 245 247 249 253 260 267 269 270 272 272 271 272 277 272 269 274 280 274 271 276 280 275 272 268 270 270 260 261
185 190 189 191 190 195 196 200 202 210 217 219 228 233 238 242 246 261 268 264 266 269 269 268 268 268 284 279 285 290 286 280 281 278 278 279 280 284 280 281 279 278 265
188 191 189 190 191 195 199 202 205 212 221 224 231 240 245 249 129 215 270 277 273 271 272 273 270 241 235 230 244 259 271 277 282 286 283 283 286 285 287 284 284 281 277
191 191 189 191 194 197 201 201 207 213 218 225 233 239 247 238 187 217 239 267 272 273 274 275 277 280 260 263 243 230 240 241 246 265 277 280 284 285 288 283 276 279 282
191 192 191 193 195 196 200 204 210 216 221 228 237 244 251 242 196 219 233 251 263 267 268 269 271 277 275 275 281 277 271 260 244 242 257 267 274 282 281 277 280 274 267
191 192 192 194 196 197 201 205 209 216 225 232 237 245 252 248 208 215 236 263 260 262 264 265 267 270 259 234 266 273 276 276 259 239 246 258 269 271 270 273 268 267 268
193 192 191 193 197 201 202 205 207 215 228 239 241 246 252 258 220 209 224 262 269 270 266 260 243 243 255 225 259 271 275 279 287 281 253 246 251 250 235 241 257 263 268
190 188 189 193 198 200 200 204 210 219 229 242 250 251 250 253 239 216 220 256 273 277 280 278 273 199 223 232 246 264 272 284 285 280 275 268 259 254 246 236 238 251 262
184 186 189 192 199 195 199 206 211 221 228 235 242 252 251 241 240 226 215 230 258 273 276 280 288 200 228 241 245 255 262 270 269 270 270 269 267 264 261 256 250 250 255
182 185 188 192 198 201 202 207 212 216 236 243 247 256 261 259 232 211 219 227 232 248 270 282 288 273 259 253 242 242 248 252 259 265 269 272 274 274 273 267 258 252 251
181 184 187 192 198 200 211 215 222 226 234 246 255 264 271 268 268 258 241 229 224 236 256 263 247 246 245 259 265 241 239 252 262 269 274 278 280 277 269 265 263 261 259
180 184 190 196 200 203 211 223 232 237 250 261 272 277 280 282 313 352 307 296 301 316 309 281 274 269 263 259 261 261 260 257 251 258 267 271 272 270 267 261 258 260 260
180 186 193 199 195 208 215 218 215 235 229 233 248 267 279 282 292 293 282 277 277 280 277 271 273 273 275 276 277 274 265 262 262 263 263 265 268 269 268 264 258 255 257
180 181 195 202 199 212 225 238 240 223 224 233 236 238 245 263 271 272 272 272 265 242 250 265 271 274 275 276 275 274 274 272 266 263 263 263 265 266 265 264 261 257 256
178 169 192 199 213 223 232 245 253 264 259 245 227 223 229 237 247 254 257 263 258 232 252 266 272 274 275 275 276 276 275 272 264 261 259 259 260 261 263 262 259 257 259
177 175 188 210 222 232 241 249 256 262 272 278 280 233 212 226 234 241 233 250 272 276 274 275 278 279 278 277 279 277 274 271 269 264 262 261 262 261 261 262 262 260 258
168 142 193 226 234 239 248 261 267 272 274 278 281 287 283 267 270 261 243 260 275 282 286 286 284 282 281 278 278 276 274 272 270 265 266 266 263 262 264 265 266 266 261
150 148 182 227 248 270 276 277 279 279 281 283 285 299 314 294 290 293 293 290 286 287 290 292 291 287 282 276 274 274 273 273 272 271 271 270 268 264 265 268 268 268 268
137 150 212 281 290 285 292 285 282 283 286 288 292 282 221 264 286 293 295 294 293 292 291 288 285 286 289 287 282 276 274 274 274 275 276 276 275 273 271 269 269 271 270
170 220 258 273 279 268 264 277 287 289 292 294 295 297 294 294 296 298 296 295 296 294 293 292 291 289 289 288 285 281 280 283 286 285 280 274 271 271 271 270 271 272 271
233 280 294 296 289 289 292 295 295 298 300 300 301 302 302 303 302 302 300 300 300 298 298 297 294 296 297 295 289 284 290 304 302 293 289 283 278 274 273 272 271 272 274
306 300 295 295 298 299 299 300 302 304 304 303 305 306 307 306 303 302 304 304 302 297 296 295 294 296 296 295 293 298 342 337 302 299 292 283 279 275 272 270 270 273 272
308 302 300 300 299 300 301 303 304 305 305 307 308 308 307 308 309 310 310 306 306 304 300 297 298 300 302 299 306 321 319 292 279 278 282 280 278 274 274 273 275 274 274